Date,TemperatureHighF,TemperatureAvgF,TemperatureLowF,DewpointHighF,DewpointAvgF,DewpointLowF,HumidityHigh,HumidityAvg,HumidityLow,PressureMaxIn,PressureMinIn,WindSpeedMaxMPH,WindSpeedAvgMPH,GustSpeedMaxMPH,PrecipitationSumIn
2013-9-1,78.1,67.5,59.2,65.7,61.3,56.3,94,81,62,29.84,29.67,5,1,5,0.00
2013-9-2,69.8,63.7,58.1,64.4,53.9,48.0,86,71,57,29.90,29.71,14,2,14,0.00
2013-9-3,74.8,63.6,53.1,53.0,50.4,48.0,85,64,42,29.98,29.88,8,1,8,0.00
2013-9-4,81.0,66.5,54.9,62.3,56.1,49.9,89,71,52,30.10,29.94,10,2,10,0.00
2013-9-5,68.2,57.8,46.9,50.6,44.8,39.9,86,64,38,30.24,30.09,11,2,11,0.00
2013-9-6,76.1,61.2,44.6,53.9,49.0,41.9,91,67,44,30.21,29.98,7,2,7,0.00
2013-9-7,77.4,69.6,65.1,69.7,61.0,53.1,87,74,65,29.99,29.84,6,2,6,0.21
2013-9-8,70.9,65.5,55.0,64.1,54.2,48.0,87,68,48,30.09,29.92,14,3,14,0.01
2013-9-9,83.3,66.0,54.1,59.7,51.8,47.6,84,64,31,30.37,29.94,5,1,5,3.76
2013-9-10,91.9,82.2,65.7,68.8,65.1,54.5,82,58,40,30.34,29.91,12,4,12,0.00
2013-9-11,83.8,75.4,66.9,65.9,62.2,60.6,84,64,48,30.11,30.03,8,2,8,0.00
2013-9-12,74.7,65.5,55.6,62.1,54.0,42.3,88,68,48,30.12,29.99,19,4,19,0.00
2013-9-13,60.3,52.4,45.5,43.4,39.3,31.0,85,63,34,30.23,30.11,11,3,11,0.00
2013-9-14,67.6,53.5,37.6,48.5,40.2,32.3,93,65,27,30.90,30.13,8,1,8,0.00
2013-9-15,60.4,56.0,52.3,53.7,48.7,43.1,92,77,61,30.22,30.11,4,1,4,0.17
2013-9-16,58.1,51.6,43.5,50.6,43.5,38.8,92,75,51,30.47,30.22,11,3,11,0.00
2013-9-17,65.7,50.4,35.2,46.1,40.3,32.1,93,71,39,30.49,30.28,7,1,7,0.00
2013-9-18,76.8,59.2,42.1,54.3,47.7,39.9,92,69,39,30.28,30.08,8,1,8,0.00
2013-9-19,77.0,67.1,59.9,66.8,59.4,51.9,90,77,66,30.09,29.93,7,2,7,0.19
2013-9-20,72.7,68.5,63.7,66.3,62.5,58.6,90,81,70,29.95,29.81,10,2,10,0.08
2013-9-21,64.4,58.3,51.3,58.8,49.1,41.2,87,72,52,29.99,29.79,11,2,11,0.02
2013-9-22,52.7,48.1,44.8,42.9,40.5,38.7,83,75,62,30.14,29.99,10,2,10,0.00
2013-9-23,83.3,69.5,53.2,59.1,53.6,49.5,93,61,31,30.11,30.01,5,1,5,0.00
2013-9-24,69.4,52.9,37.8,55.2,43.7,34.8,90,73,52,30.05,29.80,6,1,6,0.00
2013-9-25,68.4,54.3,42.3,51.9,45.4,38.6,87,73,49,29.82,29.77,8,1,8,0.00
2013-9-26,72.0,57.6,46.2,55.1,47.2,42.6,89,71,37,29.93,29.81,6,1,6,0.00
2013-9-27,75.6,59.1,43.7,52.5,48.4,41.5,92,71,42,30.02,29.93,7,1,7,0.00
2013-9-28,77.9,62.2,47.7,56.8,50.9,45.2,92,70,39,29.97,28.23,10,2,10,0.00
2013-9-29,67.5,61.4,51.6,56.7,49.8,44.0,88,67,44,29.80,29.68,10,2,10,0.27
2013-9-30,68.2,57.8,51.1,53.6,49.4,44.5,92,75,49,29.81,29.70,7,1,7,0.00